[[{"header":{"parameterUnit":"m.s-1","parameterCategory":2,"la1":30.2992,"la2":30.254,"lo1":-89.0895,"lo2":-89.0443,"dy":0.0025,"dx":0.0025,"nx":19,"ny":19,"refTime":"2026-05-16T21:00:00:Z","depth":"0","parameterNumber":2,"parameterNumberName":"U-component_of_CURRENTS"},"data":[0,0,0,-0.1963,-0.1963,-0.1971,-0.1971,-0.1947,-0.1947,0,0,0,0,0,0,0,0,0,0,0,-0.1954,-0.1954,-0.1963,-0.1963,-0.1971,-0.1971,-0.1947,-0.1947,0,0,0,0,0,0,0,0,0,0,0,-0.1954,-0.1954,-0.1954,-0.1963,-0.1971,-0.1971,-0.1947,-0.1947,0,0,0,0,0,0,0,0,0,0,-0.1942,-0.1936,-0.1954,-0.1954,-0.1963,-0.1971,-0.1971,-0.1947,-0.1947,-0.1937,0,-0.1943,0,-0.1951,-0.1945,-0.1945,0,0,0,-0.1952,-0.1936,-0.1949,-0.1954,-0.1964,-0.1971,-0.1965,-0.1947,-0.1947,-0.1936,-0.1942,-0.1942,-0.195,-0.1945,-0.1945,-0.1987,-0.1988,0,0,-0.1952,-0.1943,-0.1949,-0.1949,-0.1971,-0.1964,-0.1965,-0.1947,-0.1942,-0.1942,-0.1942,-0.195,-0.1945,-0.1945,-0.1986,-0.1987,0,0,0,-0.1958,-0.1942,-0.1956,-0.1949,-0.1958,-0.1965,-0.1965,-0.1942,-0.195,-0.1942,-0.195,-0.1945,-0.1945,-0.1986,-0.1987,-0.2038,0,0,0,-0.1957,-0.1947,-0.1956,-0.1949,-0.1958,-0.1953,-0.1961,-0.1951,-0.195,-0.195,-0.1945,-0.1944,-0.1985,-0.1986,-0.2035,-0.2021,0,0,0,-0.1953,-0.1946,-0.1952,-0.1949,-0.1959,-0.1954,-0.196,-0.1951,-0.1955,-0.1945,-0.1944,-0.1985,-0.1986,-0.2032,-0.2018,-0.1962,0,0,0,-0.1937,-0.1971,-0.1951,-0.1998,-0.1959,-0.2018,-0.196,-0.1987,-0.1987,-0.1945,-0.1985,-0.1987,-0.2031,-0.2016,-0.1962,-0.1774,-0.1761,0,0,-0.1981,-0.1976,-0.201,-0.1994,-0.206,-0.2015,-0.2071,-0.2037,-0.2002,-0.1985,-0.1986,-0.2036,-0.2018,-0.1962,-0.1859,-0.1843,0,0,0,-0.2026,-0.2037,-0.206,-0.2086,-0.2118,-0.2113,-0.21,-0.2085,-0.2064,-0.201,-0.2051,-0.2038,-0.2001,-0.1888,-0.1876,-0.1805,-0.1993,-0.1993,-0.1993,-0.2026,-0.2065,-0.2107,-0.2146,-0.2176,-0.2186,-0.2178,-0.2146,-0.213,-0.2131,-0.2093,-0.2101,-0.1986,-0.1974,-0.1907,-0.2127,-0.2127,-0.2128,-0.2128,-0.2049,-0.2051,-0.2105,-0.2154,-0.2174,-0.2204,-0.2216,-0.2202,-0.2162,-0.2161,-0.2122,-0.1965,-0.1963,-0.1896,-0.2131,-0.2131,-0.213,-0.213,-0.213,-0.1996,-0.1999,-0.2042,-0.209,-0.2126,-0.2171,-0.2155,-0.2176,-0.2166,-0.2152,-0.1961,-0.1958,-0.1877,-0.2117,-0.2117,-0.2116,-0.2116,-0.2116,-0.2116,-0.1891,-0.1942,-0.1941,-0.201,-0.2024,-0.2054,-0.2099,-0.2077,-0.2001,-0.1968,-0.1966,-0.1863,-0.2096,-0.2072,-0.2112,-0.2113,-0.2113,-0.2114,-0.2114,-0.1781,-0.1805,-0.18,-0.1813,-0.1863,-0.1838,-0.1918,-0.182,-0.1799,-0.1711,-0.1644,-0.1849,-0.1789,-0.1796,-0.1764,-0.1722,-0.1722,-0.1722,-0.1722,-0.1671,-0.1697,-0.165,-0.1647,-0.1671,-0.1724,-0.1575,-0.1516,-0.1445,-0.1377,-0.145,-0.1433,-0.1452,-0.1374,-0.1391,-0.1352,-0.1206,-0.1205,-0.1205,-0.1568,-0.1581,-0.1503,-0.154,-0.1576,-0.1575,-0.1381,-0.117,-0.1101,-0.1187,-0.1395,-0.1416,-0.1404,-0.1439,-0.1328,-0.1357,-0.1298,0,0]},{"header":{"parameterUnit":"m.s-1","parameterCategory":2,"la1":30.2992,"la2":30.254,"lo1":-89.0895,"lo2":-89.0443,"dy":0.0025,"dx":0.0025,"nx":19,"ny":19,"refTime":"2026-05-16T21:00:00:Z","depth":"0","parameterNumber":3,"parameterNumberName":"V-component_of_CURRENTS"},"data":[0,0,0,-0.0376,-0.0375,-0.0315,-0.0315,-0.0213,-0.0212,0,0,0,0,0,0,0,0,0,0,0,-0.0397,-0.0397,-0.0376,-0.0375,-0.0315,-0.0315,-0.0213,-0.0212,0,0,0,0,0,0,0,0,0,0,0,-0.0398,-0.0397,-0.0397,-0.0375,-0.0315,-0.0315,-0.0213,-0.0262,0,0,0,0,0,0,0,0,0,0,-0.0322,-0.0352,-0.0397,-0.0397,-0.0374,-0.0315,-0.0315,-0.0264,-0.0259,-0.0237,0,-0.0236,0,-0.0226,-0.0206,-0.0205,0,0,0,-0.0363,-0.0357,-0.034,-0.0397,-0.0374,-0.0315,-0.0339,-0.0261,-0.0255,-0.0229,-0.0235,-0.0231,-0.0224,-0.0205,-0.0205,-0.0135,-0.0135,0,0,-0.0366,-0.0383,-0.0345,-0.0337,-0.0369,-0.0341,-0.0337,-0.0258,-0.0255,-0.0235,-0.0229,-0.0223,-0.0205,-0.0204,-0.0135,-0.0135,0,0,0,-0.0384,-0.0385,-0.0371,-0.0341,-0.0335,-0.0339,-0.0335,-0.0259,-0.0254,-0.0228,-0.0221,-0.0204,-0.0203,-0.0135,-0.0135,-0.0186,0,0,0,-0.0385,-0.0396,-0.0372,-0.0381,-0.0337,-0.03,-0.0338,-0.026,-0.0251,-0.0222,-0.0204,-0.0202,-0.0135,-0.0135,-0.0185,-0.0201,0,0,0,-0.0398,-0.0397,-0.0394,-0.0382,-0.0362,-0.0301,-0.0292,-0.0257,-0.0247,-0.0205,-0.0202,-0.0135,-0.0135,-0.0183,-0.0199,-0.0136,0,0,0,-0.0412,-0.0437,-0.0395,-0.0417,-0.0362,-0.0345,-0.0292,-0.0269,-0.024,-0.0203,-0.0135,-0.0135,-0.0183,-0.0197,-0.0136,-0.002,-0.0011,0,0,-0.0458,-0.0443,-0.0457,-0.0418,-0.0425,-0.0351,-0.0336,-0.0275,-0.0225,-0.0157,-0.0155,-0.0185,-0.0199,-0.0136,-0.0011,-0.0002,0,0,0,-0.0481,-0.0492,-0.0487,-0.0477,-0.0441,-0.0388,-0.0325,-0.0281,-0.0214,-0.0208,-0.0167,-0.0173,-0.0132,-0.0062,-0.0055,0.0101,-0.0134,-0.0134,-0.0134,-0.0561,-0.054,-0.0559,-0.0524,-0.0496,-0.0411,-0.0359,-0.028,-0.0242,-0.0215,-0.0203,-0.0174,-0.0102,-0.0095,0.0063,-0.0191,-0.0191,-0.0191,-0.0191,-0.0638,-0.0649,-0.0604,-0.0617,-0.0542,-0.0507,-0.0383,-0.0333,-0.0228,-0.0221,-0.0178,-0.0105,-0.0089,0.0077,-0.0194,-0.0194,-0.0193,-0.0193,-0.0193,-0.0694,-0.0696,-0.0696,-0.0689,-0.0644,-0.0557,-0.0465,-0.038,-0.0271,-0.0233,-0.0089,-0.0086,0.0055,-0.0193,-0.0193,-0.0193,-0.0193,-0.0193,-0.0193,-0.0751,-0.0748,-0.0775,-0.0756,-0.0739,-0.0672,-0.0507,-0.0397,-0.0208,-0.0116,-0.0114,0.0098,-0.0173,-0.0178,-0.019,-0.019,-0.0191,-0.0191,-0.0191,-0.0816,-0.0815,-0.0854,-0.0857,-0.0806,-0.067,-0.0553,-0.0243,-0.0114,0.0014,0.0247,-0.0021,0.0024,0.002,0.0021,0.0063,0.0063,0.0063,0.0063,-0.0856,-0.0861,-0.0904,-0.0907,-0.0856,-0.0672,-0.0334,-0.0032,0.0287,0.0442,0.0437,0.0464,0.0447,0.0518,0.0503,0.0514,0.068,0.0681,0.0682,-0.0889,-0.09,-0.0929,-0.093,-0.087,-0.0609,-0.0187,0.0316,0.0678,0.0718,0.0632,0.0606,0.0651,0.0611,0.0723,0.0689,0.0707,0,0]}],[{"header":{"parameterUnit":"m.s-1","parameterCategory":2,"la1":30.2992,"la2":30.254,"lo1":-89.0895,"lo2":-89.0443,"dy":0.0025,"dx":0.0025,"nx":19,"ny":19,"refTime":"2026-05-16T21:00:00:Z","depth":"2","parameterNumber":2,"parameterNumberName":"U-component_of_CURRENTS"},"data":[0,0,0,-0.1803,-0.1803,-0.1817,-0.1817,-0.1796,-0.1796,0,0,0,0,0,0,0,0,0,0,0,-0.1793,-0.1793,-0.1803,-0.1803,-0.1817,-0.1817,-0.1796,-0.1796,0,0,0,0,0,0,0,0,0,0,0,-0.1793,-0.1793,-0.1793,-0.1803,-0.1817,-0.1817,-0.1796,-0.1793,0,0,0,0,0,0,0,0,0,0,-0.1783,-0.1777,-0.1793,-0.1793,-0.1804,-0.1817,-0.1817,-0.1793,-0.1793,-0.1781,0,-0.1787,0,-0.1796,-0.1794,-0.1794,0,0,0,-0.1794,-0.1777,-0.179,-0.1793,-0.1804,-0.1817,-0.1808,-0.1793,-0.1793,-0.1781,-0.1787,-0.1787,-0.1796,-0.1794,-0.1794,-0.1826,-0.1827,0,0,-0.1794,-0.1785,-0.179,-0.179,-0.1812,-0.1808,-0.1809,-0.1794,-0.1789,-0.1787,-0.1787,-0.1796,-0.1794,-0.1794,-0.1826,-0.1826,0,0,0,-0.1797,-0.1784,-0.1797,-0.179,-0.1799,-0.1809,-0.181,-0.179,-0.1797,-0.1787,-0.1795,-0.1794,-0.1793,-0.1825,-0.1826,-0.1878,0,0,0,-0.1796,-0.1788,-0.1797,-0.1791,-0.18,-0.1799,-0.1806,-0.1798,-0.1797,-0.1796,-0.1794,-0.1793,-0.1825,-0.1826,-0.1875,-0.1863,0,0,0,-0.1791,-0.1787,-0.1792,-0.179,-0.1802,-0.18,-0.1805,-0.1798,-0.1802,-0.1794,-0.1793,-0.1824,-0.1825,-0.1873,-0.1861,-0.1808,0,0,0,-0.1777,-0.1806,-0.1792,-0.1832,-0.1802,-0.1854,-0.1806,-0.1831,-0.1832,-0.1794,-0.1825,-0.1826,-0.1872,-0.1859,-0.1807,-0.1623,-0.1611,0,0,-0.1813,-0.181,-0.1839,-0.1827,-0.1884,-0.1851,-0.1899,-0.1874,-0.1843,-0.1824,-0.1825,-0.1876,-0.186,-0.1807,-0.1696,-0.168,0,0,0,-0.1851,-0.1861,-0.1881,-0.1904,-0.1934,-0.1934,-0.1926,-0.1914,-0.1898,-0.185,-0.1887,-0.1875,-0.1839,-0.1729,-0.1718,-0.1832,-0.1832,-0.1832,-0.1831,-0.1851,-0.1884,-0.192,-0.1954,-0.1983,-0.1996,-0.1992,-0.1966,-0.1954,-0.1957,-0.1927,-0.1932,-0.1819,-0.1808,-0.1955,-0.1956,-0.1956,-0.1956,-0.1956,-0.1869,-0.1869,-0.1919,-0.1961,-0.1984,-0.2014,-0.2027,-0.2018,-0.1984,-0.1986,-0.195,-0.1802,-0.1797,-0.196,-0.196,-0.1959,-0.1959,-0.1958,-0.1958,-0.1821,-0.1823,-0.1864,-0.1907,-0.1945,-0.199,-0.1976,-0.2,-0.1993,-0.1981,-0.1798,-0.1794,-0.1911,-0.195,-0.195,-0.195,-0.195,-0.195,-0.1949,-0.1728,-0.1774,-0.1773,-0.1838,-0.1853,-0.1884,-0.193,-0.1908,-0.1838,-0.1806,-0.1803,-0.1928,-0.1928,-0.1909,-0.1946,-0.1946,-0.1947,-0.1947,-0.1947,-0.1624,-0.1648,-0.1643,-0.1655,-0.1701,-0.1656,-0.1752,-0.1658,-0.1641,-0.1555,-0.1683,-0.169,-0.1632,-0.1638,-0.1611,-0.1568,-0.1568,-0.1568,-0.1568,-0.1522,-0.1546,-0.15,-0.1493,-0.1507,-0.1537,-0.1366,-0.1304,-0.1331,-0.1301,-0.1313,-0.13,-0.132,-0.1243,-0.126,-0.1225,-0.1081,-0.1081,-0.108,-0.1422,-0.1435,-0.1358,-0.1388,-0.1409,-0.1369,-0.1126,-0.09,-0.0867,-0.1066,-0.1287,-0.1524,-0.1536,-0.1556,-0.1465,-0.1481,-0.1435,0,0]},{"header":{"parameterUnit":"m.s-1","parameterCategory":2,"la1":30.2992,"la2":30.254,"lo1":-89.0895,"lo2":-89.0443,"dy":0.0025,"dx":0.0025,"nx":19,"ny":19,"refTime":"2026-05-16T21:00:00:Z","depth":"2","parameterNumber":3,"parameterNumberName":"V-component_of_CURRENTS"},"data":[0,0,0,-0.0382,-0.0381,-0.0328,-0.0328,-0.0235,-0.0235,0,0,0,0,0,0,0,0,0,0,0,-0.0401,-0.0401,-0.0382,-0.0381,-0.0328,-0.0328,-0.0236,-0.0235,0,0,0,0,0,0,0,0,0,0,0,-0.0401,-0.0401,-0.0401,-0.0381,-0.0328,-0.0328,-0.0236,-0.0279,0,0,0,0,0,0,0,0,0,0,-0.0332,-0.036,-0.0401,-0.0401,-0.0381,-0.0328,-0.0328,-0.0281,-0.0276,-0.0256,0,-0.0257,0,-0.0247,-0.0229,-0.0229,0,0,0,-0.0369,-0.0364,-0.035,-0.0401,-0.038,-0.0328,-0.0349,-0.0279,-0.0273,-0.0249,-0.0255,-0.0252,-0.0246,-0.0229,-0.0228,-0.0157,-0.0157,0,0,-0.0372,-0.0388,-0.0354,-0.0347,-0.0377,-0.0351,-0.0347,-0.0275,-0.0274,-0.0255,-0.025,-0.0244,-0.0228,-0.0227,-0.0158,-0.0157,0,0,0,-0.0388,-0.039,-0.0377,-0.035,-0.0345,-0.0349,-0.0345,-0.0277,-0.0273,-0.0249,-0.0243,-0.0227,-0.0226,-0.0158,-0.0158,-0.0207,0,0,0,-0.039,-0.04,-0.0379,-0.0387,-0.0347,-0.0314,-0.0349,-0.0278,-0.0269,-0.0244,-0.0227,-0.0226,-0.0158,-0.0158,-0.0206,-0.0224,0,0,0,-0.0402,-0.0401,-0.0398,-0.0388,-0.037,-0.0315,-0.0307,-0.0276,-0.0266,-0.0229,-0.0225,-0.0158,-0.0158,-0.0205,-0.0222,-0.0167,0,0,0,-0.0413,-0.0437,-0.0399,-0.0419,-0.0371,-0.0353,-0.0307,-0.0285,-0.0259,-0.0227,-0.0158,-0.0158,-0.0205,-0.0221,-0.0168,-0.0074,-0.0067,0,0,-0.0455,-0.0442,-0.0454,-0.0419,-0.0425,-0.0358,-0.0343,-0.0288,-0.0242,-0.0178,-0.0176,-0.0206,-0.0222,-0.0168,-0.0055,-0.0048,0,0,0,-0.0475,-0.0486,-0.048,-0.0472,-0.0437,-0.039,-0.0333,-0.0291,-0.0229,-0.0226,-0.0186,-0.0193,-0.0157,-0.0101,-0.0095,-0.0156,-0.0156,-0.0156,-0.0156,-0.0551,-0.053,-0.0548,-0.0516,-0.0489,-0.0409,-0.0361,-0.0287,-0.0252,-0.0225,-0.0219,-0.0192,-0.0133,-0.0128,-0.0202,-0.0203,-0.0203,-0.0203,-0.0203,-0.0625,-0.0638,-0.0594,-0.0608,-0.0537,-0.0505,-0.0385,-0.0339,-0.024,-0.0232,-0.0194,-0.0138,-0.0124,-0.0207,-0.0206,-0.0205,-0.0205,-0.0205,-0.0205,-0.0684,-0.0687,-0.0687,-0.0683,-0.0642,-0.0558,-0.0475,-0.039,-0.0284,-0.025,-0.0127,-0.0125,-0.0205,-0.0215,-0.0215,-0.0215,-0.0215,-0.0215,-0.0214,-0.0745,-0.0742,-0.0771,-0.0754,-0.0741,-0.0681,-0.0523,-0.0422,-0.0246,-0.0157,-0.0155,-0.0194,-0.0194,-0.0203,-0.0212,-0.0213,-0.0213,-0.0213,-0.0213,-0.0816,-0.0815,-0.0858,-0.0864,-0.0823,-0.0736,-0.0594,-0.031,-0.0182,-0.0066,-0.0073,-0.0077,-0.0037,-0.0039,-0.0042,-0.001,-0.001,-0.001,-0.001,-0.0862,-0.0866,-0.0917,-0.0927,-0.089,-0.0761,-0.0531,-0.0262,-0.0028,0.0036,0.0034,0.003,0.0022,0.0065,0.0059,0.0058,0.0117,0.0117,0.0117,-0.09,-0.0911,-0.0949,-0.0957,-0.0914,-0.0752,-0.0525,-0.0224,0.0038,0.0114,-0.0018,0.0013,0.0001,-0.0009,0.0053,0.0045,0.0042,0,0]}],[{"header":{"parameterUnit":"m.s-1","parameterCategory":2,"la1":30.2992,"la2":30.254,"lo1":-89.0895,"lo2":-89.0443,"dy":0.0025,"dx":0.0025,"nx":19,"ny":19,"refTime":"2026-05-16T21:00:00:Z","depth":"4","parameterNumber":2,"parameterNumberName":"U-component_of_CURRENTS"},"data":[0,0,0,-0.1276,-0.1278,-0.1367,-0.1367,-0.1406,-0.1406,0,0,0,0,0,0,0,0,0,0,0,-0.1247,-0.1248,-0.1276,-0.1278,-0.1367,-0.1367,-0.1406,-0.1406,0,0,0,0,0,0,0,0,0,0,0,-0.1247,-0.1247,-0.1248,-0.1278,-0.1367,-0.1367,-0.1406,-0.1358,0,0,0,0,0,0,0,0,0,0,-0.1281,-0.1267,-0.1247,-0.1248,-0.1279,-0.1366,-0.1367,-0.1356,-0.1361,-0.1344,0,-0.1364,0,-0.1384,-0.1407,-0.1407,0,0,0,-0.1278,-0.1264,-0.1285,-0.1249,-0.128,-0.1366,-0.1327,-0.1359,-0.1364,-0.135,-0.1365,-0.1367,-0.1384,-0.1407,-0.1407,-0.1426,-0.1426,0,0,-0.1273,-0.1263,-0.1282,-0.1288,-0.1309,-0.1324,-0.133,-0.1363,-0.137,-0.1365,-0.1368,-0.1385,-0.1407,-0.1407,-0.1426,-0.1426,0,0,0,-0.1259,-0.126,-0.1282,-0.1286,-0.1307,-0.1326,-0.1333,-0.1369,-0.1376,-0.1369,-0.1385,-0.1407,-0.1407,-0.1426,-0.1426,-0.1457,0,0,0,-0.1256,-0.1252,-0.128,-0.1275,-0.1307,-0.135,-0.1338,-0.1374,-0.1379,-0.1385,-0.1407,-0.1408,-0.1426,-0.1426,-0.1455,-0.1471,0,0,0,-0.1242,-0.125,-0.1262,-0.1274,-0.1312,-0.135,-0.136,-0.1376,-0.1388,-0.1407,-0.1408,-0.1426,-0.1426,-0.1454,-0.1469,-0.1431,0,0,0,-0.1226,-0.1247,-0.1262,-0.1294,-0.1311,-0.136,-0.136,-0.1405,-0.1426,-0.1407,-0.1426,-0.1426,-0.1454,-0.1468,-0.1431,-0.1229,0,0,0,-0.124,-0.1249,-0.1268,-0.1283,-0.1327,-0.1348,-0.139,-0.1421,-0.1419,-0.1409,-0.141,-0.1456,-0.1469,-0.1431,-0.1247,0,0,0,0,-0.1264,-0.1276,-0.1292,-0.1326,-0.1361,-0.1397,-0.1426,-0.1429,-0.1447,-0.1432,-0.1452,-0.146,-0.1434,-0.1316,-0.1427,-0.1427,-0.1427,-0.1427,-0.1427,-0.1256,-0.1283,-0.1315,-0.1351,-0.1385,-0.1433,-0.1453,-0.146,-0.146,-0.1471,-0.1482,-0.1473,-0.1351,-0.1477,-0.1478,-0.1478,-0.1478,-0.1478,-0.1478,-0.1259,-0.1263,-0.1322,-0.1364,-0.141,-0.1452,-0.1481,-0.1492,-0.1489,-0.1498,-0.1471,-0.1355,-0.1481,-0.148,-0.148,-0.148,-0.1479,-0.1479,-0.1479,-0.1223,-0.1225,-0.1279,-0.1339,-0.1407,-0.1465,-0.147,-0.1514,-0.1512,-0.1512,-0.1347,-0.1476,-0.1473,-0.149,-0.149,-0.149,-0.149,-0.149,-0.149,-0.1143,-0.1195,-0.1219,-0.1305,-0.1344,-0.1401,-0.1467,-0.1445,-0.1471,-0.1355,-0.1515,-0.1476,-0.1475,-0.1473,-0.1488,-0.1489,-0.1489,-0.1489,-0.1489,-0.1047,-0.1087,-0.1106,-0.1145,-0.1221,-0.1245,-0.1353,-0.1282,-0.1233,-0.1155,-0.1243,-0.1256,-0.1215,-0.1221,-0.1208,-0.1146,-0.1143,-0.1141,0,-0.096,-0.0988,-0.0985,-0.1003,-0.1012,-0.1126,-0.1024,-0.1037,-0.105,-0.1013,-0.1218,-0.132,-0.1326,-0.1286,-0.1286,-0.1272,0,0,0,-0.0875,-0.0895,-0.0851,-0.0898,-0.0901,-0.0901,-0.0983,-0.0919,-0.1082,-0.0972,-0.1076,-0.1093,-0.1337,-0.1484,-0.1452,-0.1451,-0.1444,0,0]},{"header":{"parameterUnit":"m.s-1","parameterCategory":2,"la1":30.2992,"la2":30.254,"lo1":-89.0895,"lo2":-89.0443,"dy":0.0025,"dx":0.0025,"nx":19,"ny":19,"refTime":"2026-05-16T21:00:00:Z","depth":"4","parameterNumber":3,"parameterNumberName":"V-component_of_CURRENTS"},"data":[0,0,0,-0.0243,-0.0243,-0.0229,-0.0229,-0.0176,-0.0175,0,0,0,0,0,0,0,0,0,0,0,-0.025,-0.025,-0.0243,-0.0243,-0.0229,-0.0229,-0.0176,-0.0175,0,0,0,0,0,0,0,0,0,0,0,-0.025,-0.025,-0.025,-0.0243,-0.0229,-0.0229,-0.0176,-0.0194,0,0,0,0,0,0,0,0,0,0,-0.0211,-0.0227,-0.025,-0.025,-0.0243,-0.0229,-0.0229,-0.0195,-0.0192,-0.0175,0,-0.018,0,-0.0179,-0.0172,-0.0171,0,0,0,-0.0235,-0.0229,-0.0224,-0.025,-0.0243,-0.0229,-0.0233,-0.0194,-0.0191,-0.0172,-0.0179,-0.0178,-0.0178,-0.0171,-0.0171,-0.0102,-0.0102,0,0,-0.0236,-0.0245,-0.0226,-0.0223,-0.0249,-0.0234,-0.0233,-0.0192,-0.0193,-0.0179,-0.0177,-0.0177,-0.0171,-0.0171,-0.0103,-0.0102,0,0,0,-0.0244,-0.0245,-0.0242,-0.0225,-0.0226,-0.0234,-0.0233,-0.0195,-0.0194,-0.0176,-0.0176,-0.0171,-0.017,-0.0103,-0.0102,-0.0143,0,0,0,-0.0244,-0.025,-0.0242,-0.0247,-0.0227,-0.0216,-0.0236,-0.0197,-0.0192,-0.0176,-0.0171,-0.0169,-0.0103,-0.0103,-0.0142,-0.0169,0,0,0,-0.0249,-0.0251,-0.0252,-0.0247,-0.0245,-0.0217,-0.0213,-0.0196,-0.0192,-0.0171,-0.0169,-0.0104,-0.0103,-0.0142,-0.0167,-0.014,0,0,0,-0.0253,-0.0267,-0.0252,-0.0264,-0.0245,-0.0231,-0.0213,-0.0201,-0.0186,-0.017,-0.0103,-0.0103,-0.0142,-0.0167,-0.014,-0.0171,0,0,0,-0.0274,-0.027,-0.0276,-0.0262,-0.0267,-0.0232,-0.0218,-0.0193,-0.0163,-0.0114,-0.0112,-0.0142,-0.0167,-0.014,-0.0121,0,0,0,0,-0.0284,-0.0296,-0.0291,-0.0292,-0.0268,-0.0247,-0.0213,-0.0184,-0.0143,-0.0151,-0.0114,-0.0128,-0.011,-0.0126,-0.0099,-0.0099,-0.0099,-0.0099,-0.0099,-0.0336,-0.0323,-0.0339,-0.0322,-0.0304,-0.0253,-0.0225,-0.0174,-0.0146,-0.0125,-0.014,-0.012,-0.0137,-0.011,-0.011,-0.011,-0.011,-0.011,-0.011,-0.0392,-0.0408,-0.0385,-0.0402,-0.0359,-0.0338,-0.0247,-0.0213,-0.0147,-0.0134,-0.0114,-0.0142,-0.0113,-0.0113,-0.0112,-0.0112,-0.0112,-0.0111,-0.0111,-0.0444,-0.0449,-0.0462,-0.0478,-0.0463,-0.0402,-0.0357,-0.0283,-0.0194,-0.0174,-0.0156,-0.0131,-0.015,-0.0155,-0.0155,-0.0155,-0.0155,-0.0155,-0.0155,-0.0495,-0.0502,-0.0546,-0.0554,-0.0563,-0.0535,-0.0422,-0.0354,-0.0253,-0.0199,-0.018,-0.0134,-0.0133,-0.015,-0.0155,-0.0155,-0.0155,-0.0155,-0.0155,-0.0553,-0.0564,-0.0625,-0.0654,-0.0665,-0.0629,-0.0534,-0.0369,-0.0291,-0.0217,-0.0191,-0.0189,-0.0172,-0.0169,-0.0187,-0.0203,-0.0204,-0.0204,0,-0.0593,-0.0603,-0.0687,-0.0733,-0.0738,-0.0677,-0.0562,-0.0449,-0.0313,-0.0323,-0.03,-0.0279,-0.0275,-0.0264,-0.0261,-0.0288,0,0,0,-0.0629,-0.065,-0.0714,-0.0762,-0.0769,-0.0627,-0.0524,-0.0464,-0.035,-0.0252,-0.0214,-0.0212,-0.0205,-0.0154,-0.0122,-0.012,-0.0146,0,0]}]]